Date,TemperatureHighF,TemperatureAvgF,TemperatureLowF,DewpointHighF,DewpointAvgF,DewpointLowF,HumidityHigh,HumidityAvg,HumidityLow,PressureMaxIn,PressureMinIn,WindSpeedMaxMPH,WindSpeedAvgMPH,GustSpeedMaxMPH,PrecipitationSumIn
2013-1-1,29.7,18.2,11.7,7.6,0.4,-6.5,58,47,22,29.82,29.72,8,3,8,0.00
2013-1-2,31.1,16.6,13.6,4.8,0.5,-3.7,54,49,29,29.81,29.70,10,2,10,0.00
2013-1-3,29.5,25.1,16.9,22.7,16.0,8.9,79,68,61,29.88,29.69,12,3,12,0.00
2013-1-4,38.8,24.9,12.9,20.8,13.2,4.1,70,61,44,29.86,29.74,14,4,14,0.00
2013-1-5,40.1,30.7,21.2,31.8,24.1,16.0,90,77,54,29.84,29.55,14,3,14,0.09
2013-1-6,35.6,28.0,20.3,31.5,20.2,14.5,86,72,57,29.94,29.53,14,4,14,0.00
2013-1-7,41.9,29.2,20.3,24.9,20.0,15.4,81,69,48,29.93,29.70,15,4,15,0.01
2013-1-8,43.0,30.7,26.6,27.6,22.7,20.4,80,73,52,29.78,29.72,7,3,7,0.00
2013-1-9,52.2,39.1,26.4,30.9,24.0,11.6,80,57,25,30.10,29.62,20,4,20,0.00
2013-1-10,47.5,35.0,23.4,42.6,25.5,17.1,99,71,34,30.10,29.50,12,4,12,2.30
2013-1-11,52.2,50.0,43.3,51.4,48.3,42.6,99,94,85,29.50,29.28,16,6,16,0.92
2013-1-12,52.2,42.1,29.7,47.9,35.4,23.7,87,77,63,29.61,29.34,14,4,14,0.00
2013-1-13,30.2,22.9,13.5,27.0,16.4,3.6,89,76,62,29.84,29.48,0,0,0,0.00
2013-1-14,28.9,17.6,13.5,10.3,5.1,3.0,71,58,35,30.04,29.84,0,0,0,0.00
2013-1-15,36.0,21.3,14.7,12.7,8.7,7.1,71,59,32,30.03,29.72,0,0,0,0.00
2013-1-16,38.1,28.3,20.8,24.8,16.7,10.6,80,62,45,29.72,29.44,14,2,14,0.02
2013-1-17,33.4,25.5,18.7,27.8,9.2,0.5,89,52,26,30.00,29.66,13,2,13,0.00
2013-1-18,43.7,31.3,18.7,28.3,17.8,4.5,67,57,49,30.02,29.53,21,6,21,0.91
2013-1-19,49.5,40.5,26.2,35.6,28.3,4.9,71,62,35,29.55,29.34,23,6,23,0.00
2013-1-20,26.2,17.5,12.2,5.3,-3.3,-7.9,48,39,30,29.90,29.54,18,5,18,0.02
2013-1-21,15.6,15.6,15.6,-4.8,-4.8,-4.8,39,39,39,29.86,29.73,4,4,7,0.02
2013-1-22,15.6,15.6,15.6,-4.8,-4.8,-4.8,39,39,39,29.97,29.86,4,4,7,0.02
2013-1-23,15.6,15.6,15.6,-4.8,-4.8,-4.8,39,39,39,29.93,29.70,4,4,7,0.02
2013-1-24,15.6,15.6,15.6,-4.8,-4.8,-4.8,39,39,39,30.21,29.93,4,4,7,0.02
2013-1-25,28.4,18.1,15.6,17.4,-0.2,-4.8,63,44,39,29.97,29.57,11,4,11,0.02
2013-1-26,34.9,22.3,9.1,13.2,3.9,-2.2,68,46,25,29.99,29.77,9,2,10,0.00
2013-1-27,37.2,29.7,24.6,35.5,21.2,13.2,94,71,56,29.97,29.51,13,3,13,1.13
2013-1-28,49.5,43.8,37.0,48.3,42.1,35.5,99,94,76,29.57,29.43,17,4,17,0.13
2013-1-29,62.4,56.4,41.2,59.4,55.1,40.6,99,96,87,29.44,29.01,15,5,15,2.35
2013-1-30,51.6,34.1,20.1,51.4,32.0,13.3,99,92,70,29.24,28.82,11,2,11,0.60
2013-1-31,20.3,13.7,4.1,13.5,1.7,-8.5,75,58,45,29.76,29.24,0,0,0,0.00
2013-2-1,15.6,6.3,-0.6,0.2,-7.7,-13.7,57,52,39,29.95,29.75,0,0,0,0.00
2013-2-2,25.5,16.5,7.2,19.9,6.3,-6.5,84,64,48,29.77,29.61,0,0,0,0.00
2013-2-3,28.0,17.6,7.2,15.6,6.4,-6.3,81,61,42,29.67,29.55,0,0,0,0.00
2013-2-4,32.9,23.3,12.2,23.2,17.1,5.2,85,77,65,29.63,29.45,0,0,0,0.00
2013-2-5,33.4,23.8,10.0,27.1,16.8,2.6,81,74,63,29.69,29.41,12,1,12,0.00
2013-2-6,42.4,30.9,12.7,27.4,19.9,7.0,83,64,46,29.83,29.69,9,3,9,0.25
2013-2-7,35.8,33.6,32.5,33.4,30.5,25.7,94,89,74,29.73,29.47,8,1,8,1.33
2013-2-8,33.8,27.3,23.0,31.6,21.6,18.6,94,79,64,29.99,29.55,5,0,5,0.02
2013-2-9,37.2,29.9,25.9,26.5,21.2,17.0,88,70,56,30.00,29.69,11,1,11,0.06
2013-2-10,49.3,40.5,33.4,45.9,35.9,23.6,96,84,63,29.69,29.11,21,7,21,0.73
2013-2-11,45.0,33.8,28.8,32.3,22.7,18.5,74,64,59,29.64,29.15,24,8,24,0.37
2013-2-12,29.8,26.4,20.8,20.1,17.1,14.4,82,67,62,29.72,29.53,15,3,15,0.00
2013-2-13,49.1,34.1,21.7,31.4,25.8,17.0,89,73,47,29.53,29.33,9,2,9,0.00
2013-2-14,40.3,36.6,31.3,31.8,26.5,17.1,79,67,46,29.59,29.26,20,4,20,0.00
2013-2-15,36.0,28.7,19.2,22.5,10.5,2.1,72,48,27,29.78,29.59,11,4,11,0.00
2013-2-16,24.1,16.3,9.1,2.9,-2.0,-7.4,55,44,30,29.80,29.71,14,3,14,0.00
2013-2-17,31.6,17.4,6.1,1.0,-3.5,-8.0,64,43,21,29.81,29.76,7,2,7,0.50
2013-2-18,53.6,40.6,29.3,44.9,29.8,12.5,95,67,48,29.60,29.03,21,8,21,0.76
2013-2-19,29.5,16.9,14.2,26.1,5.2,-0.8,87,59,47,29.78,29.18,0,0,0,0.00
2013-2-20,14.9,14.9,14.9,2.1,2.1,2.1,56,56,56,29.95,29.77,0,0,0,0.00
2013-2-21,14.9,14.9,14.9,2.1,2.1,2.1,56,56,56,29.97,29.58,0,0,0,0.00
2013-2-22,34.9,23.3,14.9,32.4,14.2,2.1,92,68,56,29.59,29.41,9,2,9,0.02
2013-2-23,34.2,26.2,23.2,20.8,16.2,12.9,75,66,46,29.57,29.51,10,3,10,0.00
2013-2-24,45.9,29.7,22.3,20.3,16.7,14.9,78,60,32,29.75,29.57,5,1,5,0.08
2013-2-25,50.0,33.7,19.0,25.9,20.7,13.7,86,62,30,29.77,29.57,10,3,10,0.00
2013-2-26,36.5,33.7,32.0,31.4,27.4,22.1,94,79,56,29.57,29.14,24,8,24,1.26
2013-2-27,35.4,34.0,32.5,32.2,30.7,28.8,94,87,82,29.32,29.13,8,2,8,0.00
2013-2-28,38.7,33.4,27.9,30.2,26.4,17.3,89,76,63,29.67,29.32,11,2,11,0.77
2013-3-1,30.2,26.9,25.5,21.9,18.7,16.8,75,71,64,29.79,29.65,12,5,12,0.00
2013-3-2,41.5,27.0,13.5,16.9,12.6,4.5,72,56,32,29.79,29.74,13,4,13,0.15
2013-3-3,44.1,22.8,13.3,9.1,6.0,0.9,71,53,22,29.75,29.67,8,1,8,0.09
2013-3-4,35.2,25.9,16.5,23.0,14.4,7.5,71,62,44,29.73,29.59,13,3,13,0.00
2013-3-5,34.3,32.6,31.8,30.3,27.8,23.0,87,82,66,29.59,29.41,11,2,11,0.00
2013-3-6,36.9,30.8,27.5,28.2,24.2,21.3,85,76,60,29.91,29.58,7,1,7,0.04
2013-3-7,37.4,29.5,24.8,24.0,21.7,16.9,79,73,47,30.02,29.89,4,1,4,0.28
2013-3-8,45.7,33.3,18.9,25.2,21.1,14.0,86,63,41,30.08,29.90,10,3,10,0.00
2013-3-9,45.7,38.4,31.1,32.3,27.2,21.1,83,64,54,29.91,29.49,14,6,14,0.19
2013-3-10,52.0,46.5,41.7,48.6,43.8,32.5,98,91,57,29.48,29.23,10,4,10,1.72
2013-3-11,48.4,38.6,32.9,47.6,37.0,28.9,99,94,85,29.40,29.16,10,2,10,0.20
2013-3-12,41.7,32.7,26.2,28.7,23.4,15.0,89,70,45,29.63,29.40,12,2,12,0.07
2013-3-13,39.4,29.3,22.1,16.8,9.4,-0.1,69,46,21,29.92,29.63,11,3,11,0.02
2013-3-14,38.3,29.7,19.0,28.8,19.0,8.8,86,66,35,29.92,29.69,8,2,8,0.00
2013-3-15,44.6,35.9,29.7,38.2,31.4,26.3,94,84,60,29.69,29.35,9,2,9,0.35
2013-3-16,35.1,33.0,30.6,33.0,27.1,19.9,93,79,62,29.73,29.32,12,3,12,0.00
2013-3-17,32.7,30.5,25.3,19.9,17.5,11.4,65,58,52,29.81,29.72,14,6,14,0.00
2013-3-18,32.0,32.0,32.0,18.9,18.9,18.9,58,58,58,29.80,29.80,10,10,10,0.00
2013-3-19,35.8,28.3,16.9,18.9,11.1,3.0,58,49,34,29.80,29.45,23,9,23,5.88
2013-3-20,28.2,20.9,13.8,8.9,1.5,-4.4,66,43,28,29.71,29.63,17,6,17,0.00
2013-3-21,39.9,24.3,12.2,11.2,5.6,-0.5,58,46,27,29.66,29.60,11,3,11,0.00
2013-3-22,46.8,30.4,15.8,14.4,9.9,5.0,75,46,22,29.66,29.60,8,2,8,0.06
2013-3-23,50.2,34.5,23.0,22.6,17.6,10.9,77,53,24,29.74,29.63,11,3,11,0.00
2013-3-24,38.1,34.0,31.8,29.2,22.9,19.1,86,64,51,29.64,29.26,20,7,20,0.00
2013-3-25,37.9,33.6,31.3,28.2,23.2,19.8,76,66,57,29.67,29.31,14,6,14,0.02
2013-3-26,44.6,36.7,29.7,24.2,21.3,16.6,73,55,34,29.86,29.67,10,3,10,0.00
2013-3-27,48.6,37.3,28.0,24.3,20.5,15.2,74,52,31,29.93,29.86,11,2,11,0.00
2013-3-28,56.3,41.0,24.3,53.7,18.2,9.8,97,44,21,29.95,29.88,10,2,10,0.00
2013-3-29,61.2,46.2,32.9,26.0,19.9,17.1,67,36,21,29.88,29.83,10,1,10,0.00
2013-3-30,60.3,46.1,28.4,41.6,30.6,21.7,78,57,35,29.86,29.46,14,4,14,0.00
2013-3-31,62.2,47.9,36.0,44.1,35.8,24.2,94,66,34,29.51,29.33,20,5,20,0.00
2013-4-1,45.0,35.7,28.4,23.8,12.8,4.9,61,41,22,29.79,29.51,16,4,16,0.00
2013-4-2,50.0,34.6,22.8,15.9,11.0,3.8,63,40,20,29.91,29.79,14,3,14,0.00
2013-4-3,51.8,36.6,22.3,19.5,12.2,6.2,63,38,21,30.05,29.91,14,3,14,0.00
2013-4-4,63.9,44.9,25.9,34.3,21.1,12.7,65,42,20,29.93,29.59,15,2,15,0.25
2013-4-5,53.2,43.2,36.1,34.2,23.3,10.9,75,47,26,29.84,29.62,14,5,14,0.00
2013-4-6,69.6,53.7,36.1,46.0,32.7,22.3,66,46,28,29.76,29.25,29,9,29,1.35
2013-4-7,67.5,53.9,39.7,43.0,39.3,34.0,83,59,38,29.59,29.25,11,6,11,0.11
2013-4-8,71.8,54.8,39.9,56.9,47.3,34.9,99,77,51,29.60,29.20,24,6,24,1.94
2013-4-9,62.1,46.9,40.3,50.9,43.8,39.8,99,90,65,29.61,29.45,18,5,18,1.28
2013-4-10,41.4,40.0,37.6,41.1,39.7,37.3,99,99,99,29.68,29.43,22,7,22,2.79
2013-4-11,49.1,42.7,37.9,48.8,42.4,37.7,99,99,97,29.49,29.19,17,6,17,0.59
2013-4-12,51.1,40.0,36.3,40.8,35.2,31.1,99,84,66,29.47,29.19,12,4,12,0.08
2013-4-13,49.8,39.9,33.8,32.8,29.2,24.6,85,67,44,29.60,29.46,14,4,14,0.00
2013-4-14,71.6,54.0,38.5,51.9,39.3,29.0,75,59,43,29.61,29.29,17,7,17,0.00
2013-4-15,71.1,57.0,44.8,56.3,50.8,43.8,99,81,56,29.61,29.30,24,6,24,1.18
2013-4-16,63.3,48.2,37.8,44.0,37.2,30.8,99,70,32,29.89,29.57,12,3,12,0.04
2013-4-17,43.9,43.6,43.2,34.1,33.5,32.7,70,67,65,29.89,29.84,14,5,14,0.00
2013-4-18,63.7,53.7,41.4,61.0,52.5,35.4,99,96,77,29.46,29.05,21,6,21,14.86
2013-4-19,41.2,37.7,34.3,35.9,30.3,27.3,87,75,66,29.53,29.12,19,6,19,0.05
2013-4-20,52.5,39.2,28.9,28.6,20.4,11.4,77,50,23,30.03,29.53,15,4,15,0.00
2013-4-21,56.5,44.4,33.1,32.3,23.7,16.5,69,45,28,30.12,29.94,14,6,14,0.00
2013-4-22,70.2,56.1,41.4,38.8,33.6,29.2,65,44,24,29.94,29.67,11,5,11,0.00
2013-4-23,61.2,54.1,52.3,52.8,50.0,37.9,98,87,50,29.66,29.52,11,2,11,0.30
2013-4-24,52.3,52.3,52.3,51.8,51.8,51.8,98,98,98,29.53,29.53,2,2,3,0.30
2013-4-25,56.3,43.3,33.1,32.3,22.9,16.4,68,46,28,30.12,29.95,14,6,14,0.00
2013-4-26,70.2,55.2,41.4,38.6,32.9,29.1,65,45,26,29.96,29.68,11,5,11,0.00
2013-4-27,68.7,57.5,52.3,52.6,45.5,37.4,98,67,34,29.69,29.52,8,3,8,1.54
2013-4-28,71.8,59.9,51.3,55.4,52.4,44.0,98,78,52,29.62,29.45,6,2,6,0.12
2013-4-29,76.3,63.3,49.3,57.6,53.3,49.0,99,73,45,29.54,29.40,16,5,16,0.04
2013-4-30,88.0,73.0,60.8,62.6,58.2,54.5,84,63,35,29.58,29.41,17,8,17,0.00
2013-5-1,87.6,75.8,63.9,62.0,56.3,48.8,83,54,28,29.77,29.58,14,4,14,0.02
2013-5-2,64.2,52.2,44.4,54.6,45.2,41.1,94,78,62,29.86,29.75,16,5,16,0.20
2013-5-3,50.0,45.2,40.6,48.7,44.6,39.7,99,98,91,29.77,29.57,11,5,11,0.48
2013-5-4,75.9,60.9,48.4,54.7,49.1,45.3,99,69,42,29.66,29.57,13,3,13,0.00
2013-5-5,75.4,64.4,53.2,49.2,46.0,41.8,66,53,34,29.66,29.59,13,3,13,0.00
2013-5-6,78.8,63.1,51.4,45.2,39.7,28.6,70,46,21,29.66,29.60,11,3,11,0.00
2013-5-7,82.4,61.5,46.0,45.1,41.9,39.2,85,52,24,29.67,29.61,8,2,8,0.00
2013-5-8,90.5,67.4,47.7,52.9,46.9,38.5,97,54,22,29.66,29.59,6,1,6,0.07
2013-5-9,76.8,62.4,47.7,63.3,54.1,47.4,99,76,48,29.60,29.46,10,2,10,0.98
2013-5-10,49.6,47.1,44.4,48.8,45.8,43.8,99,95,85,29.61,29.40,11,3,11,0.34
2013-5-11,63.5,50.8,41.0,52.2,40.1,23.6,99,71,29,29.66,29.46,21,3,21,0.00
2013-5-12,59.7,50.2,36.0,33.2,28.3,23.3,77,47,28,29.73,29.65,14,6,14,0.00
2013-5-13,71.4,56.8,33.1,41.8,29.8,18.6,99,42,14,29.80,29.62,11,4,11,0.00
2013-5-14,96.3,77.5,53.6,60.3,49.2,38.2,63,40,22,29.62,29.28,14,4,14,0.00
2013-5-15,92.7,74.9,0.0,54.6,53.8,50.7,53,46,24,29.46,29.28,3,3,3,0.02
2013-5-16,81.1,72.0,57.7,54.6,52.2,37.5,58,51,21,29.61,29.43,3,3,3,0.02
2013-5-17,72.9,59.4,55.8,56.5,46.3,42.6,75,62,47,29.67,29.59,12,2,12,0.00
2013-5-18,61.7,61.7,61.7,50.2,50.2,50.2,66,66,66,29.68,29.60,3,3,4,0.00